Location: Banff
(51.1667°N, 115.5667°W)
Time: 06:00:14
(UTC+00:00)

S-56A Canister/Altair - Pass Details

Date: 29 November 2020
Orbit: 633 x 2499 km, 38.9° (Epoch: 21 January)

Event Time Altitude Azimuth Distance (km) Brightness Sun altitude
Rises 07:48:57 0° 265° (W) 4,248 - -60.2°
Reaches altitude 10° 07:53:19 10° 247° (WSW) 2,902 - -60.1°
Maximum altitude 07:57:18 16° 211° (SSW) 2,152 - -60.0°
Drops below altitude 10° 08:00:38 10° 173° (S) 2,343 - -59.8°
Sets 08:03:38 0° 151° (SSE) 3,090 - -59.7°
